Погода Верхотурье

Погода Верхотурье : погода сейчас, прогноз погоды и архив. Всё, что Вы хотите узнать о погоде Верхотурье!

Хотите узнать прогноз погоды Верхотурье? Тогда Вам сюда: Погода Верхотурье

Поиск расширенной информации на нашем сайте:

Другие новости

Новости СМИ2

Главная страница сайта

Новости сайта

03.07.2017

Напоминаем, что на нашем специализированном сайте Метеоцентр.Азия вы можете получить высокодетализированные автоматические прогнозы погоды по пунктам России, СНГ и мира в авиационном формате (включающие направление и скорость ветра, видимость, явления погоды, количество и форму облачности, нижнюю и верхнюю границу облачности).

Рекомендуем: Кольчуг цветмет цены.

Погода Верхотурье - сегодня

Время (UTC), дата Ветер
(°,м/с) 
Видим.   Явления Облачность Т
(°С)
Тd
(°С)
f(%) Тe
(°С)
Pmin
(гПа)
dP
(гПа)
Po
(мм)
O2
(г/м3)
Тmin Tmax R s Состояние
почвы
21 19.08.17 250 (З) 20000 м    1/1 600 м 
[Sc]
+11 +9.6 91 +13  1022.7  -0.2  756  291           
00 20.08.17 тихо ()   20000 м  местами туман поземный  3/0 средняя, верхняя 
[Ac trans|Ci fib]
+7.7 +6.7 93 +8  1022.4  -0.5  755  295           
03 20.08.17 130 (ЮВ) 20000 м    10/8 300 м кучево-дожд., средняя 
[Cb calv|Ac As]
+13.5 +11.6 88 +18  1021.4  -0.7  755  288  +7.4        сухая 
06 20.08.17 230 (ЮЗ) 20000 м  {ливн. осадки}  9/8 300 м кучево-дожд., средняя 
[Cb calv|Ac und]
+17.7 +13.2 75 +25  1020.2  -1  754  283           
09 20.08.17 260 (З) 20000 м  слаб. ливневой дождь  10/8 300 м кучево-дожд., средняя 
[Cb calv|Ac As]
+18.6 +14.5 77 +27  1019.3  -0.8  753  281           
12 20.08.17 230 (ЮЗ) 20000 м  {ливн. осадки}  9/6 300 м кучево-дожд., средняя 
[Cb calv|Ac und]
+18.9 +15.1 79 +29  1019  -0.4  753  281           
18 20.08.17 250 (З) 20000 м  туман поземный{ливн. осадки}  4/1 600 м верхняя 
[Sc|Ci fib]
+14.9 +14 94 +23  1020.2  0.8  754  285           
21 20.08.17 280 (З) 20000 м  туман поземный  ясно 
+11.6 +10.7 94 +15  1020.5  0.1  754  289           
00 21.08.17 280 (З) 10 км  туман поземный  3/0 верхняя 
[Ci sp]
+9.6 +8.8 95 +11  1021.5  0.9  755  292           
03 21.08.17 280 (З) 20000 м  местами туман поземный  10/0 верхняя 
[Cs]
+14.5 +13.7 95 +22  1021.5  0.3  755  286  +9.2        влажная 
06 21.08.17 260 (З) 20000 м    3/1 600 м верхняя 
[Cu hum|Ci fib]
+21.7 +15 66 +30  1021.4  0.2  755  279           
09 21.08.17 220 (ЮЗ) 20000 м    5/3 600 м верхняя 
[Cu hum|Ci fib]
+25 +14.5 52 +33  1020.7  -0.5  755  276           
12 21.08.17 250 (З) 20000 м    8/0 600 м верхняя 
[Ci sp]
+26 +15 51 +35  1020.2  -0.5  754  274           
18 21.08.17 тихо ()   20000 м    10/0 верхняя 
[Cs]
+15.9 +14.8 93 +24  1021.2  0.5  755  284           
21 21.08.17 280 (З) 20000 м  туман поземный  3/0 верхняя 
[Ci fib]
+13.9 +12.9 94 +20  1022.2  0.8  755  287           
00 22.08.17 270 (З) 4000 м  туман поземный  3/0 верхняя 
[Ci fib]
+13.5 +12.6 94 +20  1023.2  756  288           
03 22.08.17 290 (З) 10 км    4/0 верхняя 
[Ci fib]
+18.4 +17.5 94 +33  1023.9  757  282  +13.2        сухая 
06 22.08.17 060 (СВ) 20000 м    ясно 
+26.2 +19.2 65 +43  1024.5  758  274           
09 22.08.17 290 (З) 20000 м    3/1 600 м верхняя 
[Cu hum|Ci fib]
+28.6 +16.9 49 +40  1024  -0.4  757  273           
12 22.08.17 240 (ЮЗ) 20000 м    ясно 
+29.5 +14.8 41 +38  1023.8  -0.1  757  272           
18 22.08.17 тихо ()   20000 м  туман поземный  3/0 верхняя 
[Ci fib]
+16.7 +15.7 94 +26  1025  0.5  758  284           
21 22.08.17 тихо ()   4000 м  туман поземный  3/0 верхняя 
[Ci fib]
+14.4 +13.4 94 +20  1025.4  0.3  758  287           
00 23.08.17 тихо ()   4000 м  туман поземный  4/0 верхняя 
[Ci sp]
+12.4 +11.6 95 +16  1025.8  0.3  758  290           
03 23.08.17 тихо ()   4000 м  в посл. час туман  ясно 
+17.1 +16.3 95 +28  1026.2  0.6  758  284  +12.1        сухая 
06 23.08.17 230 (ЮЗ) 20000 м  {туман}  ясно 
+27.1 +18.1 58 +41  1025.5  -0.1  758  274           
Время (UTC), дата Ветер
(°,м/с) 
Видим.   Явления Облачность Т
(°С)
Тd
(°С)
f(%) Тe
(°С)
Pmin
(гПа)
dP
(гПа)
Po
(мм)
O2
(г/м3)
Тmin Tmax R s Состояние
почвы

Для получения пояснительной информации подведите курсор к названию столбца.

ПОГОДА Верхотурье - архив

Всё, что Вы хотите узнать о погоде Верхотурье - удобно и подробно!

Выберите нужную дату (начиная с 1 января 2015* года) и нажмите кнопку "Найти".
Будут отображены архивные сводки погоды по пункту Верхотурье, начиная с указанной даты.


Отображать данные в формате CSV (для использования в таблицах Excel)


Внимание! Наш архив погоды предназначен исключительно для личного некоммерческого использования в познавательных целях. Если Вам необходимы официальные справки о состоянии погоды (для производственных, юридических, коммерческих и т.п. целей), обращайтесь в органы Росгидромета.

*Примечание: данная дата относится к архиву по метеостанциям СССР (Россия, СНГ, Балтия).
Архив по метеостанциям Зарубежной Европы и Азии (кроме Китая) хранится 10 дней, по другим регионам земного шара (Китай, Африка, Америка, Австралия, Океания) - 1 день.

Верхотурье - район местоположения метеостанции


Название, широта, долгота, высота метеостанции:
Верхотурье 58.9°ш. 60.8°д. 125 м над ур. моря [Российская Федерация]

Дополнительная информация

В oтличие oт бoльшинства пoгoдных сайтoв мы публикуем пoдрoбную метеoинфoрмацию в детальнoм прoфессиoнальнoм фoрмате.

Характеристики температуры и влажнoсти вoздуха измеряются на высoте 2 м в тени вдали oт зданий и деревьев.
Скoрoсть ветра измеряется на высoте 10 м (на урoвне рoста челoвека скoрoсть ветра ниже в 1.5-2 раза). Если метеoстанция нахoдится в гoрoде или в лесу, тo скoрoсть ветра занижена на 2-4 м/с пo сравнению с oткрытым местoм. Скoрoсть ветра над акватoриями крупных рек и oзёр, а также на вершинах хoлмoв на 2-5 м/с выше, чем в oбычных услoвиях.
Атмoсфернoе давление в разных тoчках местнoсти мoжет значительнo oтличаться oт давления на метеoстанции, в зависимoсти oт услoвий рельефа (при пoдъёме на 10 м давление пoнижается примернo на 1 мм рт.ст.).